Starlink 33600

operational
NORAD ID: 62772 Int'l Des: 2025-015 Owner: SPXS Country: US Constellation: starlink
LEOCIRCULAR

Über Starlink 33600

Beschreibung wird geladen...

Live-Position

3D-Globus wird geladen...

Nächste Überflüge

Höhenverlauf

Altitude vs Time

uPlot chart will show altitude changes over time

Zweizeiliger Elementsatz

1 62772U 25015Q 25354.23715959 .00017990 00000-0 61795-3 0 9994
2 62772 53.1607 331.7107 0001357 87.5035 272.6121 15.30205074 52313
Epoch: 20. Dez. 2025 • Age: 7 hours

Aktueller Status

Höhe 482.3 km
Geschwindigkeit 7.62 km/s
Subsatellitenpunkt -23.35°S, 113.38°W
Startdatum 21. Jan. 2025
Alter 0.9 years
Typ internet

Technische Details

Klassifizierung Payload
Masse 575.00 kg
Trockenmasse 530.00 kg
Gesamtmasse 575.00 kg
Länge 0.30 m
Durchmesser 4.10 m
Spannweite 29.00 m
Form Box + pan
Hersteller SPXS
Bus-Typ Starlink V2MO
Phasenstatus In Orbit
Besitzer/Staat SPXS/US

Große Konstellationen

Loading constellations...